Regional Weather Roundup
Issued by NWS Newport/Morehead, NC

Current Version | Previous Version | Text Only | Print | Product List | Glossary On
Versions: 1 2 3 4 5 6 7 8 9 10 11 12 13 14 15 16 17 18 19 20 21 22 23 24 25 26 27 28 29 30 31 32 33 34 35 36 37 38 39 40 41 42 43 44 45 46 47 48 49 50
000
ASUS42 KMHX 200013
RWRMHX
WEATHER ROUNDUP FOR EASTERN NORTH CAROLINA
NATIONAL WEATHER SERVICE NEWPORT/MOREHEAD CITY NC
800 PM EDT THU OCT 19 2017

NOTE: "FAIR" INDICATES FEW OR NO CLOUDS BELOW 12,000 FEET
WITH NO SIGNIFICANT WEATHER AND/OR OBSTRUCTIONS TO VISIBILITY

NCZ015>017-031-032-045>047-102-103-200100-
NORTH COAST

CITY           SKY/WX    TMP DP  RH WIND       PRES   REMARKS
EDENTON        CLEAR     62  58  86 CALM      30.20R
ELIZABETH CITY CLEAR     64  60  87 CALM      30.19R
KITTY HAWK     CLEAR     65  59  80 CALM      30.18S
MANTEO         CLEAR    N/A N/A N/A CALM      30.20R

$$

NCZ045>047-081-094-103-104-200100-
CENTRAL COAST

CITY           SKY/WX    TMP DP  RH WIND       PRES   REMARKS
FRISCO         CLEAR     64  60  87 NE3       30.19R

$$

NCZ095-097-098-100-101-200100-
SOUTHERN COAST

CITY           SKY/WX    TMP DP  RH WIND       PRES   REMARKS
BEAUFORT       CLEAR     62  59  90 CALM      30.19S
CEDAR ISLAND   NOT AVBL
JACKSONVILLE   CLEAR     62  61  96 W5        30.19R
PINEY ISLAND     N/A    N/A N/A N/A CALM      30.19R
WILMINGTON     CLEAR     65  61  87 CALM      30.20R


$$

NCZ011>013-027>030-043-044-078>080-089-090>093-098-200100-
COASTAL PLAIN

CITY           SKY/WX    TMP DP  RH WIND       PRES   REMARKS
AHOSKIE        CLEAR     56  55  95 CALM      30.20S
CLINTON        CLEAR     63  58  84 CALM      30.21R
ELIZABETHTOWN  NOT AVBL
GOLDSBORO      CLEAR     63  56  79 CALM      30.19R
GREENVILLE     CLEAR     61  59  94 CALM      30.21S
HAVELOCK       CLEAR     63  60  90 CALM      30.20R
KENANSVILLE    CLEAR     59  54  82 CALM      30.21R
KINSTON        CLEAR     59  55  88 CALM      30.21R
NEW BERN       CLEAR     63  60  90 S3        30.21R
RICHLANDS      CLEAR     62  59  90 CALM      30.20R
ROCKY MOUNT    CLEAR     57  57 100 CALM      30.21R
WASHINGTON     CLEAR     62  56  81 CALM      30.20R
WHITEVILLE     CLEAR     64  59  81 CALM      30.20R

$$

AMZ130-135-150-152-154-156-158-170-250-252-270-ANZ085-086-088-633-658-670-200100-
MARINE OBSERVATIONS

STATION/POSITION TIME  TEMP    WIND        PRES    WAVE   SWELL
                       AIR SEA DIR/SP/G            HT/PER HT/PER
                 (UTC) (F)     (DEG/KT/KT) (MB)    (FT/S) (FT/S)
CHESAPEAKE LIGHT NOT AVBL
64 E VA BEACH    2350   67 69  100/  2/  4 1022.8    3/ 9   3/ 9
DUCK             2348   69 69  130/  6/  7 1021.9
2 E DUCK         0000      70                N/A     3/ 9
OREGON INLET     2348      68   80/  3/  4 1022.3
13E OREGON INLT  2348      71                N/A     3/ 9   3/ 9
HATTERAS CG      2348   68 70   40/  3/  5 1022.3
DIAMOND BUOY     2350   74 81  360/  6/ 10 1022.0    4/ 9   5/ 9
CAPE LOOKOUT     0000   71      30/  2/  2 1022.1
BEAUFORT LAB     2348   69 71   70/  3/  3 1022.5
30 SE NEW RVR IN 2308   75      60/  6/ 10 1021.7
30 SE NEW RVR IN NOT AVBL
27 SE WRIGHTSVLE 2308   75 77   60/ 10/ 14 1021.8
5 SE WRIGHTSVLE  2308   74 74   90/  8/ 12 1021.8
225 S CAPE HAT   2350   78 80   40/ 17/ 19 1018.9    6/ 8   3/ 9
41 SE CHARLESTON 2350   76 80   30/ 14/ 17 1021.4    5/ 8   3/ 8

$$




USA.gov is the U.S. government's official web portal to all federal, state and local government web resources and services.